Wind_Speed
24 21 25 34 32 26 28 31 31 27 26 28 30 31 32 33 33 31 32 31 30 27 27 25 25 23 22 20 18 18 18 16 15 14 9 9 8 8 7 10 14 16 13
13 17 32 33 32 32 30 31 32 34 30 30 31 32 35 34 35 36 34 32 32 31 28 28 29 26 25 23 21 20 20 19 19 19 17 15 13 14 15 17 18 21 23
21 24 23 24 29 33 33 30 29 34 36 33 32 33 33 35 37 34 34 35 32 30 30 31 29 29 29 27 24 22 22 22 22 21 22 22 21 20 21 20 18 19 20
21 17 18 23 26 28 31 31 28 33 35 37 36 35 34 33 36 38 36 33 32 32 29 29 30 31 30 29 28 28 26 24 25 24 24 25 25 22 22 21 21 21 21
13 17 20 24 25 21 22 29 31 34 35 33 36 37 36 34 34 36 37 33 31 33 30 29 30 32 32 30 28 26 24 24 25 26 26 26 26 23 25 21 20 18 20
18 20 22 22 23 23 24 23 29 39 41 35 35 37 38 38 34 35 36 35 35 33 32 30 29 31 31 32 31 29 28 27 27 26 27 26 23 22 23 21 20 22 25
21 25 28 26 24 25 27 26 24 22 33 38 35 33 33 35 34 33 33 33 34 32 31 29 29 28 29 30 29 28 28 28 30 28 29 28 27 23 22 23 24 24 24
20 23 24 25 29 26 25 27 25 24 24 26 25 17 18 20 30 29 33 31 31 30 30 29 29 28 28 27 28 29 31 31 32 30 30 28 25 22 22 22 21 23 22
21 22 24 26 24 21 23 25 26 25 22 19 19 35 40 35 26 29 17 32 30 27 27 28 28 28 29 28 28 29 30 30 31 29 28 28 26 24 22 22 24 24 25
28 27 26 26 27 24 24 24 23 22 22 17 12 14 19 30 16 41 42 29 22 21 24 30 28 27 27 27 28 27 28 29 27 27 25 26 24 24 23 24 24 25 25
29 35 32 30 31 31 27 23 22 23 19 19 16 13 19 16 17 12 26 25 38 39 26 22 26 26 26 28 31 31 32 27 27 28 29 28 28 26 24 24 24 24 21
36 29 31 32 33 34 33 27 26 24 21 18 19 19 19 18 27 34 39 37 28 30 33 30 30 29 31 28 30 34 32 30 29 28 28 30 30 27 23 23 20 17 16
31 34 32 33 32 30 30 30 30 25 23 19 19 20 22 19 20 24 27 29 33 37 42 35 36 32 32 32 26 29 31 32 32 33 33 32 28 23 22 20 18 15 14
32 32 31 32 34 34 31 29 28 28 26 22 22 22 19 19 21 24 29 28 27 27 33 38 36 35 32 28 32 27 31 34 35 37 35 30 25 24 25 21 20 16 13
35 34 32 33 32 32 31 28 26 25 22 22 20 22 21 20 21 22 24 31 31 29 24 28 33 35 36 33 35 31 30 35 36 36 35 32 28 26 26 24 21 20 17
31 29 30 31 30 30 30 30 25 23 22 23 24 24 23 23 23 24 24 25 26 27 29 31 21 27 30 34 35 32 30 34 36 36 34 31 29 28 25 25 25 24 21
30 31 29 28 27 30 31 30 30 24 22 24 25 26 22 21 21 23 21 25 31 31 30 28 31 30 26 32 34 31 33 33 31 33 32 29 29 26 25 26 26 26 23
30 29 29 30 30 29 29 29 27 25 24 24 24 26 24 21 23 17 18 26 33 36 35 27 25 26 20 27 30 34 34 35 35 37 33 31 30 28 27 26 25 24 20
34 32 30 30 31 30 29 28 25 24 25 25 24 25 24 21 23 22 23 33 36 36 40 37 33 25 27 26 31 36 36 35 35 37 35 35 31 30 28 26 26 23 18
29 30 29 29 29 28 29 27 25 23 25 24 27 26 23 22 24 25 28 33 39 41 37 35 29 30 26 25 26 31 34 33 36 34 36 33 31 30 30 28 26 22 20
28 25 23 24 25 24 25 24 23 23 22 24 26 24 22 23 24 25 27 29 30 30 28 26 27 26 27 30 29 33 31 36 34 34 30 27 25 26 27 25 24 22 19
24 25 24 23 22 22 21 18 19 19 17 17 17 18 21 23 24 26 23 23 24 23 21 18 19 18 25 24 26 29 25 24 25 25 23 20 21 23 24 26 23 22 20
22 23 22 20 18 17 15 16 18 18 18 19 15 14 20 20 20 18 20 21 19 17 14 17 16 18 23 22 21 22 24 23 24 23 21 20 21 21 25 23 22 23 19
21 21 19 16 13 14 15 17 16 16 18 18 15 15 17 18 19 15 12 16 22 18 22 19 17 15 14 19 22 23 20 16 19 20 21 21 19 20 23 24 22 20 20
19 20 17 14 15 15 16 17 15 17 16 15 13 15 14 12 15 11 12 13 14 17 18 20 20 20 17 19 23 23 23 20 20 20 18 16 16 20 22 22 22 22 19
13 8 6 10 11 13 17 17 15 11 11 13 10 11 9 10 7 7 9 10 11 18 16 16 22 26 20 19 23 24 20 20 23 21 19 17 15 17 20 20 21 19 18
Wind_Direction
280 284 267 264 261 259 260 253 250 249 249 245 243 242 243 242 242 243 244 242 244 244 242 243 241 240 242 239 242 250 252 257 269 269 281 260 252 258 248 253 266 252 245
270 298 260 273 268 261 260 263 261 255 251 250 247 247 243 240 241 243 244 244 242 245 242 244 245 241 243 240 250 249 253 256 258 260 263 261 267 264 266 266 264 252 255
260 268 276 279 268 267 259 260 268 266 257 250 246 242 241 240 238 240 242 243 244 246 247 244 247 246 248 247 248 255 261 262 262 263 265 269 271 273 272 268 264 263 266
286 291 307 296 292 275 259 260 262 267 266 252 246 244 242 242 240 237 240 242 242 247 250 248 247 246 248 250 254 260 265 262 260 264 265 266 272 270 268 269 266 267 270
314 312 316 325 316 298 265 259 261 264 263 258 252 246 243 243 241 237 237 240 244 246 249 252 254 247 247 251 251 257 257 265 265 261 262 264 266 270 265 272 272 276 274
319 322 324 321 321 324 309 296 271 272 260 255 252 250 244 241 242 240 240 242 243 247 247 252 255 252 252 250 250 256 259 262 261 261 261 263 266 269 268 269 272 276 282
313 312 314 315 318 322 318 330 316 287 257 255 253 256 254 251 247 247 245 246 246 245 247 252 251 251 253 254 249 253 256 260 259 259 259 261 269 274 273 270 269 271 273
294 302 303 307 311 314 316 322 330 325 325 264 255 291 293 241 238 245 248 247 245 250 252 251 251 247 247 248 249 254 258 257 256 253 260 265 268 272 270 270 268 270 271
291 292 294 300 301 299 309 315 319 324 319 311 285 255 274 288 300 325 302 250 244 245 250 252 254 254 246 242 249 251 256 253 251 253 259 262 268 269 273 267 270 273 273
300 298 290 286 291 295 297 301 308 311 314 310 307 288 272 242 290 270 297 253 249 248 265 260 247 253 257 245 242 252 258 252 253 254 253 264 266 267 265 270 274 275 278
301 299 293 284 281 282 285 288 293 301 301 302 292 277 266 260 244 200 228 248 254 257 255 254 253 254 253 255 245 247 254 258 256 254 254 259 261 264 263 266 272 273 267
297 293 288 286 281 281 276 274 279 284 291 286 287 281 270 262 244 250 252 254 249 245 250 259 253 256 256 245 246 249 250 254 255 256 259 257 258 258 263 266 264 255 255
292 296 292 290 290 286 274 272 269 272 278 285 276 277 278 265 268 255 258 256 262 262 263 271 255 245 251 249 241 244 248 247 251 257 255 253 254 260 256 250 239 240 245
294 291 287 289 287 290 283 274 275 269 267 273 277 276 271 262 270 269 260 257 263 269 268 264 258 246 251 248 251 238 244 244 251 254 251 252 251 249 246 237 232 232 235
298 295 286 282 289 281 284 278 274 267 264 263 269 268 273 270 281 276 268 254 255 262 253 259 255 249 247 233 240 241 243 249 247 245 246 246 245 242 242 233 232 232 235
296 290 289 282 279 277 278 279 274 266 263 255 258 264 269 272 283 275 270 256 244 230 258 265 273 248 246 234 227 231 238 245 244 244 244 242 240 240 241 233 232 235 235
293 291 288 280 275 277 277 277 282 271 264 250 255 258 266 272 277 272 264 246 233 249 262 259 260 254 242 220 220 224 231 240 243 241 246 244 241 237 238 239 236 232 230
301 291 280 273 274 276 277 278 278 274 271 265 252 250 258 272 274 274 263 241 233 241 255 258 266 260 257 249 219 220 225 238 241 247 244 240 239 236 236 235 226 222 227
299 291 286 279 271 270 270 278 271 265 268 269 256 255 256 266 273 273 259 242 239 253 252 261 268 262 248 243 229 213 223 236 241 243 242 242 236 233 233 227 220 218 227
301 291 282 279 273 269 267 270 266 260 263 266 261 259 261 267 266 263 262 261 258 257 257 258 251 258 241 245 232 207 222 234 242 233 238 237 232 234 228 219 212 221 222
308 297 290 278 272 266 266 265 260 263 264 274 263 255 259 269 272 270 268 259 251 248 259 253 256 254 242 243 223 216 227 236 236 232 226 222 226 220 213 214 212 221 228
306 299 293 283 276 270 261 253 260 263 270 270 271 262 258 271 274 274 263 257 248 250 259 243 254 243 219 220 220 219 228 218 227 217 204 207 206 209 205 204 214 221 228
303 303 295 285 273 259 250 259 266 260 265 271 256 262 259 271 281 282 264 256 246 241 239 246 240 241 225 217 214 203 206 209 200 195 193 195 200 202 204 207 209 222 231
307 300 290 281 275 262 263 265 262 264 266 251 246 255 261 281 274 284 282 285 259 237 226 229 220 218 224 202 197 197 195 187 190 190 194 202 208 210 215 219 223 231 241
318 313 290 279 269 267 268 268 272 271 255 232 247 255 272 272 275 274 296 301 293 282 242 224 221 223 216 223 201 197 188 180 185 190 200 202 215 215 220 222 233 237 233
322 339 324 302 294 275 263 262 271 264 247 239 232 241 250 248 252 281 287 301 276 282 251 227 216 207 196 205 195 197 190 200 198 203 218 210 213 211 216 225 225 230 234
Height
1525 1505 1517 1528 1530 1530 1529 1529 1531 1532 1532 1534 1535 1536 1537 1537 1540 1542 1544 1546 1548 1550 1552 1554 1556 1557 1558 1559 1560 1561 1561 1561 1561 1562 1562 1562 1562 1562 1563 1563 1562 1563 1564
1523 1520 1515 1525 1525 1523 1521 1522 1523 1525 1526 1527 1529 1530 1530 1531 1533 1535 1536 1538 1540 1543 1545 1548 1550 1553 1554 1555 1555 1556 1557 1558 1558 1559 1559 1560 1560 1561 1561 1560 1560 1560 1560
1520 1519 1523 1521 1518 1517 1513 1512 1514 1516 1517 1518 1520 1522 1522 1523 1525 1527 1529 1531 1533 1536 1539 1541 1544 1547 1548 1550 1552 1552 1553 1553 1554 1554 1555 1556 1556 1557 1556 1556 1556 1556 1556
1518 1518 1519 1515 1510 1507 1505 1503 1503 1505 1507 1509 1510 1512 1514 1516 1517 1520 1523 1525 1527 1529 1532 1534 1537 1540 1542 1544 1546 1548 1549 1549 1549 1549 1550 1551 1551 1552 1551 1552 1551 1552 1551
1516 1514 1510 1506 1504 1500 1495 1492 1495 1499 1497 1498 1503 1505 1507 1509 1511 1513 1517 1520 1521 1523 1525 1527 1529 1532 1535 1538 1540 1542 1544 1546 1545 1545 1545 1545 1545 1546 1546 1548 1547 1547 1546
1512 1508 1505 1504 1499 1493 1489 1488 1487 1490 1493 1489 1490 1494 1498 1500 1503 1507 1511 1514 1516 1517 1518 1520 1522 1524 1527 1530 1533 1535 1538 1539 1540 1541 1541 1540 1541 1541 1542 1543 1543 1542 1541
1507 1504 1501 1498 1496 1490 1483 1484 1481 1474 1470 1476 1482 1487 1490 1494 1499 1501 1504 1507 1509 1510 1511 1512 1513 1515 1518 1521 1524 1527 1530 1532 1534 1534 1534 1535 1536 1538 1538 1538 1537 1537 1536
1503 1500 1497 1495 1491 1488 1483 1479 1477 1471 1462 1462 1463 1469 1477 1480 1485 1491 1497 1499 1501 1503 1504 1504 1505 1507 1510 1513 1516 1519 1521 1524 1526 1528 1529 1531 1533 1533 1532 1532 1532 1531 1530
1497 1495 1492 1489 1486 1485 1481 1477 1472 1466 1460 1457 1457 1461 1466 1469 1467 1491 1485 1490 1492 1493 1496 1497 1498 1500 1502 1506 1509 1511 1513 1514 1518 1521 1523 1525 1526 1527 1526 1526 1525 1525 1523
1486 1484 1483 1482 1479 1476 1475 1474 1471 1468 1464 1462 1461 1457 1455 1463 1469 1469 1483 1483 1486 1487 1489 1490 1489 1492 1496 1499 1501 1505 1506 1508 1511 1514 1517 1519 1520 1520 1521 1520 1521 1519 1518
1478 1474 1472 1472 1470 1468 1467 1466 1465 1463 1462 1459 1459 1461 1462 1460 1463 1455 1466 1466 1473 1479 1479 1478 1480 1483 1486 1491 1494 1497 1499 1504 1506 1509 1511 1512 1513 1513 1514 1514 1514 1513 1512
1469 1465 1462 1461 1460 1458 1457 1457 1457 1456 1456 1457 1454 1453 1454 1457 1459 1457 1460 1458 1461 1466 1468 1468 1468 1470 1475 1479 1484 1489 1493 1497 1500 1500 1503 1504 1505 1507 1509 1509 1508 1508 1507
1459 1454 1451 1447 1446 1446 1445 1446 1447 1448 1447 1450 1450 1449 1447 1447 1447 1449 1448 1450 1450 1453 1456 1457 1460 1459 1461 1467 1472 1478 1485 1487 1491 1493 1494 1496 1499 1503 1503 1503 1504 1504 1504
1450 1447 1443 1439 1435 1433 1434 1436 1435 1436 1438 1438 1441 1440 1442 1442 1442 1441 1440 1440 1441 1442 1444 1445 1445 1447 1450 1453 1461 1468 1473 1477 1481 1484 1487 1490 1493 1495 1496 1498 1500 1501 1501
1441 1438 1436 1433 1430 1426 1423 1424 1426 1427 1428 1429 1431 1432 1432 1432 1432 1432 1431 1432 1434 1436 1439 1436 1432 1431 1435 1437 1446 1456 1462 1468 1471 1475 1479 1482 1485 1487 1489 1492 1495 1496 1497
1429 1427 1425 1423 1421 1420 1417 1414 1417 1418 1419 1420 1422 1422 1422 1422 1422 1421 1422 1423 1426 1431 1431 1429 1423 1419 1421 1426 1431 1441 1451 1459 1463 1467 1471 1474 1477 1480 1484 1486 1489 1491 1493
1419 1417 1414 1413 1412 1410 1409 1408 1406 1409 1411 1412 1413 1413 1413 1413 1413 1412 1412 1415 1421 1422 1419 1417 1416 1413 1413 1412 1418 1426 1438 1449 1457 1462 1464 1467 1470 1474 1478 1481 1483 1486 1488
1410 1407 1405 1403 1402 1401 1400 1400 1400 1400 1401 1402 1405 1406 1407 1407 1406 1407 1408 1410 1413 1412 1411 1411 1411 1410 1407 1409 1401 1410 1425 1439 1447 1453 1457 1460 1463 1467 1471 1474 1477 1480 1483
1400 1396 1394 1393 1391 1391 1391 1391 1392 1393 1393 1393 1395 1397 1400 1400 1399 1399 1401 1401 1402 1401 1401 1402 1402 1401 1400 1404 1403 1399 1416 1432 1438 1445 1449 1453 1455 1461 1464 1469 1472 1476 1478
1389 1386 1384 1383 1382 1381 1382 1382 1384 1385 1385 1387 1387 1389 1392 1393 1391 1391 1391 1391 1389 1388 1390 1390 1390 1393 1394 1398 1398 1402 1417 1425 1431 1437 1440 1445 1448 1452 1458 1464 1468 1472 1474
1382 1378 1375 1374 1373 1373 1374 1374 1376 1377 1378 1378 1379 1381 1383 1383 1383 1382 1382 1380 1379 1379 1380 1382 1384 1387 1390 1395 1398 1405 1413 1419 1424 1430 1433 1438 1443 1447 1455 1461 1464 1468 1470
1375 1371 1368 1366 1366 1365 1366 1367 1369 1370 1371 1371 1372 1373 1375 1374 1373 1373 1371 1372 1372 1373 1375 1377 1380 1383 1387 1391 1396 1402 1409 1415 1421 1426 1431 1435 1440 1447 1451 1457 1461 1464 1466
1368 1364 1361 1359 1359 1359 1360 1362 1363 1364 1364 1365 1366 1366 1367 1366 1366 1366 1366 1368 1369 1370 1372 1375 1379 1382 1384 1388 1393 1399 1406 1411 1417 1423 1428 1434 1439 1445 1449 1452 1456 1459 1460
1362 1358 1356 1355 1354 1355 1355 1356 1357 1357 1357 1358 1359 1360 1361 1361 1361 1360 1361 1363 1365 1365 1368 1371 1375 1378 1381 1384 1389 1396 1402 1408 1415 1420 1427 1432 1437 1442 1445 1449 1452 1454 1455
1357 1354 1351 1350 1350 1350 1351 1351 1351 1351 1351 1351 1353 1355 1356 1357 1357 1357 1358 1359 1361 1363 1363 1366 1369 1374 1378 1382 1387 1393 1399 1404 1411 1419 1424 1429 1433 1437 1441 1444 1447 1448 1450
1355 1351 1349 1347 1346 1345 1344 1344 1345 1345 1346 1347 1348 1350 1352 1353 1355 1355 1356 1357 1357 1360 1361 1363 1365 1371 1374 1380 1384 1390 1396 1402 1409 1415 1420 1425 1428 1433 1437 1441 1442 1444 1445